• In Deutschland
  • Länderverzeichnis
  • Für 7 Tage
  • Wassertemperatur
  • Satellitenkarten
  • Wetterkarte
  • Widgets
  • user-avatar
    Anmelden

    Stündliche Wetter Idstein

    Heute, 27 April, Freitag

    Zeit Temperatur Niederschläge Wind Luftdruck Luftfeuchtigkeit
    00:00 +7°C° 0 mm 1 m/S 737 mmHg 79%
    01:00 +6°C° 0 mm 0 m/S 737 mmHg 80%
    02:00 +5°C° 0 mm 0 m/S 737 mmHg 81%
    03:00 +5°C° 0 mm 0 m/S 737 mmHg 82%
    04:00 +5°C° 0 mm 0 m/S 736 mmHg 83%
    05:00 +7°C° 0 mm 1 m/S 736 mmHg 80%
    06:00 +8°C° 0 mm 1 m/S 736 mmHg 77%
    07:00 +9°C° 0 mm 1 m/S 736 mmHg 74%
    08:00 +10°C° 0 mm 1 m/S 735 mmHg 67%
    09:00 +12°C° 0 mm 2 m/S 735 mmHg 59%
    10:00 +13°C° 0 mm 3 m/S 735 mmHg 52%
    11:00 +14°C° 0 mm 3 m/S 734 mmHg 49%
    12:00 +16°C° 0 mm 3 m/S 733 mmHg 46%
    13:00 +17°C° 0 mm 3 m/S 733 mmHg 44%
    14:00 +18°C° 0 mm 3 m/S 732 mmHg 44%
    15:00 +18°C° 0 mm 3 m/S 732 mmHg 45%
    16:00 +19°C° 0 mm 3 m/S 731 mmHg 45%
    17:00 +18°C° 0 mm 3 m/S 731 mmHg 51%
    18:00 +17°C° 0 mm 2 m/S 730 mmHg 57%
    19:00 +16°C° 0 mm 1 m/S 730 mmHg 63%
    20:00 +15°C° 0 mm 2 m/S 731 mmHg 68%
    21:00 +14°C° 0 mm 2 m/S 731 mmHg 73%
    22:00 +12°C° 0 mm 2 m/S 731 mmHg 78%
    23:00 +12°C° 0 mm 2 m/S 731 mmHg 80%

    Morgen, 28 April, Samstag

    Zeit Temperatur Niederschläge Wind Luftdruck Luftfeuchtigkeit
    00:00 +10°C° 0 mm 3 m/S 732 mmHg 82%
    01:00 +10°C° 0 mm 3 m/S 732 mmHg 84%
    02:00 +10°C° 0 mm 3 m/S 732 mmHg 86%
    03:00 +9°C° 0 mm 3 m/S 732 mmHg 88%
    04:00 +8°C° 0 mm 3 m/S 733 mmHg 89%
    05:00 +9°C° 0 mm 3 m/S 733 mmHg 86%
    06:00 +8°C° 0 mm 4 m/S 733 mmHg 83%
    07:00 +8°C° 0 mm 4 m/S 734 mmHg 79%
    08:00 +10°C° 0 mm 4 m/S 734 mmHg 73%
    09:00 +11°C° 0 mm 4 m/S 734 mmHg 66%
    10:00 +13°C° 0 mm 4 m/S 734 mmHg 59%
    11:00 +14°C° 0 mm 4 m/S 734 mmHg 55%
    12:00 +15°C° 0 mm 4 m/S 734 mmHg 51%
    13:00 +17°C° 0 mm 4 m/S 733 mmHg 46%
    14:00 +18°C° 0 mm 4 m/S 733 mmHg 46%
    15:00 +18°C° 0 mm 3 m/S 733 mmHg 46%
    16:00 +18°C° 0 mm 3 m/S 732 mmHg 45%
    17:00 +17°C° 0 mm 2 m/S 732 mmHg 51%
    18:00 +16°C° 0 mm 2 m/S 732 mmHg 56%
    19:00 +15°C° 0 mm 1 m/S 732 mmHg 62%
    20:00 +14°C° 0,2 mm 1 m/S 732 mmHg 67%
    21:00 +13°C° 0,2 mm 1 m/S 733 mmHg 73%
    22:00 +12°C° 0,2 mm 1 m/S 733 mmHg 78%
    23:00 +12°C° 0 mm 1 m/S 733 mmHg 79%

    übermorgen, 29 April, Sonntag

    Zeit Temperatur Niederschläge Wind Luftdruck Luftfeuchtigkeit
    00:00 +12°C° 0 mm 1 m/S 732 mmHg 80%
    01:00 +10°C° 0 mm 0 m/S 732 mmHg 81%
    02:00 +11°C° 0 mm 1 m/S 732 mmHg 82%
    03:00 +11°C° 0 mm 1 m/S 731 mmHg 83%
    04:00 +10°C° 0 mm 1 m/S 731 mmHg 84%
    05:00 +11°C° 0,1 mm 1 m/S 731 mmHg 83%
    06:00 +12°C° 0,1 mm 1 m/S 730 mmHg 82%
    07:00 +12°C° 0,1 mm 1 m/S 730 mmHg 81%
    08:00 +14°C° 0 mm 1 m/S 730 mmHg 76%
    09:00 +16°C° 0 mm 1 m/S 730 mmHg 71%
    10:00 +20°C° 0 mm 1 m/S 730 mmHg 66%
    11:00 +20°C° 0 mm 2 m/S 729 mmHg 62%
    12:00 +21°C° 0 mm 2 m/S 728 mmHg 57%
    13:00 +24°C° 0 mm 2 m/S 728 mmHg 53%
    14:00 +24°C° 0,2 mm 3 m/S 727 mmHg 54%
    15:00 +24°C° 0,2 mm 3 m/S 726 mmHg 55%
    16:00 +24°C° 0,2 mm 3 m/S 726 mmHg 56%
    17:00 +22°C° 0,7 mm 3 m/S 725 mmHg 63%
    18:00 +21°C° 0,7 mm 2 m/S 724 mmHg 70%
    19:00 +19°C° 0,7 mm 2 m/S 723 mmHg 76%
    20:00 +18°C° 1,3 mm 3 m/S 723 mmHg 79%
    21:00 +17°C° 1,3 mm 4 m/S 724 mmHg 83%
    22:00 +14°C° 1,3 mm 4 m/S 724 mmHg 86%
    23:00 +13°C° 0,3 mm 5 m/S 724 mmHg 85%

    30 April, Montag

    Zeit Temperatur Niederschläge Wind Luftdruck Luftfeuchtigkeit
    00:00 +11°C° 0,3 mm 6 m/S 725 mmHg 85%
    01:00 +10°C° 0,3 mm 6 m/S 725 mmHg 85%
    02:00 +9°C° 0 mm 6 m/S 726 mmHg 84%
    03:00 +9°C° 0 mm 6 m/S 726 mmHg 82%
    04:00 +9°C° 0 mm 7 m/S 727 mmHg 81%
    05:00 +9°C° 0 mm 7 m/S 727 mmHg 79%
    06:00 +8°C° 0 mm 7 m/S 727 mmHg 77%
    07:00 +8°C° 0 mm 7 m/S 727 mmHg 75%
    08:00 +8°C° 0 mm 7 m/S 728 mmHg 73%
    09:00 +9°C° 0 mm 8 m/S 728 mmHg 71%
    10:00 +9°C° 0 mm 8 m/S 729 mmHg 68%
    11:00 +9°C° 0,1 mm 8 m/S 729 mmHg 66%
    12:00 +9°C° 0,1 mm 8 m/S 730 mmHg 64%
    13:00 +10°C° 0,1 mm 8 m/S 730 mmHg 61%
    14:00 +10°C° 0 mm 7 m/S 731 mmHg 60%
    15:00 +10°C° 0 mm 7 m/S 731 mmHg 58%
    16:00 +11°C° 0 mm 7 m/S 731 mmHg 56%
    17:00 +10°C° 0 mm 6 m/S 731 mmHg 59%
    18:00 +10°C° 0 mm 5 m/S 731 mmHg 61%
    19:00 +10°C° 0 mm 4 m/S 732 mmHg 64%
    20:00 +9°C° 0 mm 3 m/S 732 mmHg 68%
    21:00 +8°C° 0 mm 3 m/S 732 mmHg 73%
    22:00 +7°C° 0 mm 2 m/S 733 mmHg 78%
    23:00 +6°C° 0 mm 2 m/S 733 mmHg 79%

    1 Mai, Dienstag

    Zeit Temperatur Niederschläge Wind Luftdruck Luftfeuchtigkeit
    00:00 +5°C° 0 mm 2 m/S 733 mmHg 81%
    01:00 +5°C° 0 mm 2 m/S 733 mmHg 83%
    02:00 +4°C° 0 mm 2 m/S 733 mmHg 83%
    03:00 +4°C° 0 mm 2 m/S 733 mmHg 84%
    04:00 +4°C° 0 mm 1 m/S 733 mmHg 84%
    05:00 +4°C° 0 mm 2 m/S 733 mmHg 78%
    06:00 +5°C° 0 mm 2 m/S 734 mmHg 73%
    07:00 +5°C° 0 mm 2 m/S 734 mmHg 68%
    08:00 +7°C° 0 mm 2 m/S 734 mmHg 62%
    09:00 +8°C° 0 mm 2 m/S 735 mmHg 56%
    10:00 +10°C° 0 mm 2 m/S 735 mmHg 50%
    11:00 +12°C° 0 mm 2 m/S 735 mmHg 47%
    12:00 +13°C° 0 mm 2 m/S 735 mmHg 44%
    13:00 +14°C° 0 mm 2 m/S 735 mmHg 42%
    14:00 +14°C° 0 mm 2 m/S 735 mmHg 42%
    15:00 +14°C° 0 mm 2 m/S 735 mmHg 43%
    16:00 +14°C° 0 mm 2 m/S 736 mmHg 43%
    17:00 +13°C° 0 mm 2 m/S 736 mmHg 48%
    18:00 +13°C° 0 mm 2 m/S 736 mmHg 53%
    19:00 +12°C° 0 mm 1 m/S 736 mmHg 58%
    20:00 +11°C° 0 mm 1 m/S 736 mmHg 62%
    21:00 +9°C° 0 mm 1 m/S 737 mmHg 65%
    22:00 +8°C° 0 mm 1 m/S 737 mmHg 69%
    23:00 +7°C° 0 mm 1 m/S 737 mmHg 70%

    2 Mai, Mittwoch

    Zeit Temperatur Niederschläge Wind Luftdruck Luftfeuchtigkeit
    00:00 +7°C° 0 mm 1 m/S 737 mmHg 71%
    01:00 +7°C° 0 mm 1 m/S 738 mmHg 72%
    02:00 +6°C° 0 mm 1 m/S 738 mmHg 74%
    03:00 +6°C° 0 mm 1 m/S 738 mmHg 76%
    04:00 +5°C° 0 mm 1 m/S 738 mmHg 79%
    05:00 +5°C° 0 mm 2 m/S 738 mmHg 76%
    06:00 +6°C° 0 mm 2 m/S 738 mmHg 74%
    07:00 +7°C° 0 mm 2 m/S 738 mmHg 72%
    08:00 +8°C° 0 mm 2 m/S 739 mmHg 67%
    09:00 +10°C° 0 mm 2 m/S 739 mmHg 63%
    10:00 +12°C° 0 mm 2 m/S 739 mmHg 58%
    11:00 +12°C° 0 mm 3 m/S 739 mmHg 57%
    12:00 +13°C° 0 mm 3 m/S 738 mmHg 55%
    13:00 +13°C° 0 mm 3 m/S 738 mmHg 54%
    14:00 +13°C° 0 mm 3 m/S 738 mmHg 55%
    15:00 +13°C° 0 mm 3 m/S 738 mmHg 56%
    16:00 +13°C° 0 mm 3 m/S 738 mmHg 57%
    17:00 +12°C° 0 mm 3 m/S 738 mmHg 63%
    18:00 +11°C° 0 mm 3 m/S 738 mmHg 68%
    19:00 +10°C° 0 mm 2 m/S 738 mmHg 74%
    20:00 +10°C° 0 mm 2 m/S 738 mmHg 77%
    21:00 +9°C° 0 mm 2 m/S 738 mmHg 80%
    22:00 +8°C° 0 mm 2 m/S 739 mmHg 83%
    23:00 +8°C° 0 mm 2 m/S 739 mmHg 83%
    Mehr zeigen